{"data":{"norad_id":59281,"intl_designator":"2024-052B","name":"YUNHAI-2 02B","alt_names":[],"object_type":"PAYLOAD","status":"ACTIVE","operator":null,"country":"PRC","launch_date":"2024-03-21","launch_site_code":"JSC","launch_vehicle":null,"mission":null,"orbit_class":"UNKNOWN","rcs_meters":null,"size_class":null,"mass_kg":null,"dimensions":null,"purposes":[],"wikipedia_slug":null,"has_3d_model":false,"image_url":null,"decayed_at":null,"tle_current":{"epoch":"2026-09-22T20:12:45.959040Z","epoch_age_seconds":58571,"freshness":"FRESH","line1":"1 59281U 24052B   26265.84219860  .00000002  00000+0  65331-4 0  9990","line2":"2 59281  50.0115 328.6563 0004879 174.4006 185.6964 14.28001599130565","mean_motion":14.28001599,"eccentricity":0.0004879,"inclination_deg":50.0115,"raan_deg":328.6563,"arg_perigee_deg":174.4006,"mean_anomaly_deg":185.6964,"bstar":6.5331e-5,"rev_number":13056,"period_min":100.84022321883,"perigee_km":794.9170201205,"apogee_km":801.91990293986,"semimajor_km":7176.5554615302,"source":"CELESTRAK","updated_at":"2026-09-23T09:00:19.283869Z"}}}